Location: Dulzura
(32.6442°N, 116.7814°W)
Time: 14:47:24
(UTC+00:00)

CZ-4C R/B - Pass Details

Date: 07 December 2021
Orbit: 404 x 478 km, 97.7° (Epoch: 19 January)

Event Time Altitude Azimuth Distance (km) Brightness Sun altitude
Rises 13:55:32 0° 184° (S) 2,332 6.8 -8.7°
Reaches altitude 10° 13:57:38 10° 194° (SSW) 1,467 5.6 -8.3°
Maximum altitude 14:00:30 33° 261° (W) 706 3.5 -7.7°
Drops below altitude 10° 14:03:21 10° 328° (NNW) 1,465 5.0 -7.2°
Enters shadow 14:05:01 - 336° (NNW) 2,144 5.9 -6.8°
